Weather Service Report


289 
ASUS45 KBOU 290607
RWRCO 

WEATHER ROUNDUP FOR COLORADO
NATIONAL WEATHER SERVICE DENVER/BOULDER CO
1200 AM MDT FRI MAY 29 2015

NOTE: "FAIR" INDICATES FEW OR NO CLOUDS BELOW 12000 FEET WITH NO
SIGNIFICANT WEATHER AND/OR OBSTRUCTIONS TO VISIBILITY.

COZ001>005-013-030-031-290700-
...NORTHWEST COLORADO...
  
CITY           SKY/WX    TMP DP  RH WIND       PRES   REMARKS
CRAIG          PTCLDY    42  40  92 SE5       30.25R                  
HAYDEN         CLOUDY    43  37  81 E7        30.26S                  
MEEKER         PTCLDY    43  39  86 E6        30.26S                  
MOUNT WERNER   NOT AVBL                                               
STEAMBOAT SPGS CLOUDY    41  39  93 CALM      30.27S                  
WALDEN         CLOUDY    37  34  87 SE6       30.28S                  
$$

COZ006>008-011-290700-
...WEST CENTRAL VALLEYS...
  
CITY           SKY/WX    TMP DP  RH WIND       PRES   REMARKS
GRAND JUNCTION PTCLDY    51  47  86 NE3       30.16F                  
MONTROSE       PTCLDY    51  40  65 S5        30.22S                  
EAGLE          PTCLDY    54  48  82 E6        30.27S                  
RIFLE          CLEAR     50  42  74 CALM      30.22R                  
DELTA          PTCLDY    54  43  66 CALM      30.19F                  
NUCLA          PTCLDY    50  43  76 CALM      30.23S                  
$$

COZ017>023-064>068-290700-
...SOUTHWEST COLORADO...
  
CITY           SKY/WX    TMP DP  RH WIND       PRES   REMARKS
DURANGO        PTCLDY    52  38  58 N7        30.17F                  
CORTEZ         CLEAR     50  42  74 W3        30.17S                  
PAGOSA SPRINGS PTCLDY    45  36  70 NW3       30.24S                  
TELLURIDE      MOCLDY    40  38  93 SE5       30.35S                  
WOLF CREEK PAS NOT AVBL                                               
$$

COZ009-010-012-014-032>034-037-058>063-290700-
...CENTRAL COLORADO...
  
CITY           SKY/WX    TMP DP  RH WIND       PRES   REMARKS
ASPEN          LGT RAIN  39  37  92 SW8       30.29S                  
BUENA VISTA    PTCLDY    43  34  69 NW7       30.28R                  
COPPER MTN     PTCLDY    34  28  80 W13       30.42R WCI  25          
BERTHOUD PASS  FAIR      23  18  80 NW23G35   30.41F WCI   7          
COTTONWOOD PAS PTCLDY    41  32  70 W7        30.35R                  
GUNNISON       CLEAR     43  34  70 CALM      30.31S                  
KREMMLING      CLOUDY    41  36  81 CALM      30.30R                  
LEADVILLE      PTCLDY    32  29  88 NE9       30.33R WCI  24          
MONARCH PASS   FOG       30  28  93 MISG      30.52S VSB<1/4          
SALIDA         PTCLDY    47  36  65 CALM      30.34R                  
SUNLIGHT       PTCLDY    32  32 100 CALM      30.41R                  
WILKERSON PASS MOCLDY    34  23  64 NE5       30.42S WCI  30          
$$

COZ069>075-290700-
...SAN LUIS VALLEY/SANGRE DE CRISTO MOUNTAINS...
  
CITY           SKY/WX    TMP DP  RH WIND       PRES   REMARKS
ALAMOSA        PTCLDY    48  34  58 N9        30.24R                  
LA VETA PASS   MOCLDY   N/A N/A N/A MISG      30.34F                  
SAGUACHE       CLEAR     45  36  70 NW15      30.27F                  
$$

COZ035-036-038>040-290700-
...NORTHERN COLORADO FRONT RANGE...
  
CITY           SKY/WX    TMP DP  RH WIND       PRES   REMARKS
DENVER INTL AP MOCLDY    53  48  83 SW12      30.14F                  
DMNS CITY PARK   N/A     55  46  71 SW3       30.13F                  
AURORA         MOCLDY    51  46  82 S7        30.16F                  
FRONT RANGE AP CLOUDY    54  52  94 MISG      30.15S                  
ERIE MUNI ARPT PTCLDY    51  42  71 CALM      30.13S                  
BOULDER MUN AP PTCLDY    55  36  47 W5        30.13F                  
CENTENNIAL     MOCLDY    50  45  83 S10       30.16F                  
BROOMFIELD     PTCLDY    55  36  47 NW12      30.15S                  
FORT COLLINS   MOCLDY    55  48  76 S3        30.14S                  
LONGMONT       MOCLDY    55  48  77 W6        30.14S                  
$$

COZ041-046-047-076>085-087-088-290700-
...PIKES PEAK/PALMER DIVIDE AND SOUTHERN FOOTHILLS...
  
CITY           SKY/WX    TMP DP  RH WIND       PRES   REMARKS
COLO. SPRINGS  MOCLDY    51  45  79 NW7       30.19S                  
A. F. ACADEMY  MOCLDY    49  46  90 W2        30.19F                  
ELLICOTT       MOCLDY   N/A N/A N/A E10       30.16F                  
FALCON         MOCLDY    48  44  84 N56G104   30.21S                  
FORT CARSON    PTCLDY    50  46  84 N8        30.15F                  
LIMON          LGT RAIN  50  46  86 SW9       30.15F                  
MONUMENT HILL  MOCLDY    43  41  93 MISG      30.22F                  
TRINIDAD       MOCLDY    53  48  83 W10       30.12R                  
$$

COZ042>045-048>051-090-091-290700-
...NORTHEAST COLORADO...
  
CITY           SKY/WX    TMP DP  RH WIND       PRES   REMARKS
GREELEY ARPT   CLOUDY    57  45  62 N9        30.13R                  
AKRON          PTCLDY    52  49  89 W15       30.08R                  
BURLINGTON     CLOUDY    53  50  89 NW5       30.07S                  
WRAY           CLOUDY    55  51  88 SW6       30.03S                  
STERLING       MOCLDY    55  52  88 N8        30.08R                  
HOLYOKE        CLOUDY    59  54  82 N9        30.05R                  
FORT MORGAN    PTCLDY    52  49  89 NW9       30.12R                  
$$

COZ086-089-092>099-290700-
...SOUTHEAST COLORADO...
  
CITY           SKY/WX    TMP DP  RH WIND       PRES   REMARKS
PUEBLO         PTCLDY    56  51  84 N13       30.11S                  
LA JUNTA       MOCLDY    56  49  77 NE8       30.07F                  
LAMAR          CLOUDY    55  51  86 CALM      30.06R                  
SPRINGFIELD      N/A     50  49  96 NW6       30.08R                  
$$

Return to Home page


Western Regional Climate Center, wrcc@dri.edu